Time,TemperatureF,DewpointF,PressureIn,WindDirection,WindDirectionDegrees,WindSpeedMPH,WindSpeedGustMPH,Humidity,HourlyPrecipIn,Conditions,Clouds,dailyrainin,SolarRadiationWatts/m^2,SoftwareType,DateUTC
2013-06-13 00:01:00,59.0,52.0,29.78,NE,50,0.0,1.0,79,0.00,,,0.31,0.000000,,2013-06-13 04:01:00,
2013-06-13 00:12:00,59.0,53.0,29.78,NE,50,0.0,3.0,80,0.00,,,0.31,0.000000,,2013-06-13 04:12:00,
2013-06-13 00:22:00,58.0,52.0,29.79,NE,50,0.0,0.0,81,0.00,,,0.31,0.000000,,2013-06-13 04:22:00,
2013-06-13 00:32:00,58.0,52.0,29.79,NE,50,0.0,1.0,81,0.00,,,0.28,0.000000,,2013-06-13 04:32:00,
2013-06-13 00:43:00,58.0,53.0,29.79,NE,50,0.0,0.0,82,0.00,,,0.28,0.000000,,2013-06-13 04:43:00,
2013-06-13 00:53:00,57.0,52.0,29.79,NE,50,0.0,1.0,83,0.01,,,0.29,0.000000,,2013-06-13 04:53:00,
2013-06-13 01:02:00,57.0,52.0,29.78,NE,50,0.0,0.0,84,0.01,,,0.29,0.000000,,2013-06-13 05:02:00,
2013-06-13 01:12:00,57.0,52.0,29.78,NE,50,0.0,1.0,84,0.01,,,0.29,0.000000,,2013-06-13 05:12:00,
2013-06-13 01:24:00,56.0,52.0,29.78,NE,50,0.0,1.0,85,0.01,,,0.29,0.000000,,2013-06-13 05:24:00,
2013-06-13 01:33:00,56.0,52.0,29.78,NNW,327,0.0,2.0,86,0.01,,,0.26,0.000000,,2013-06-13 05:33:00,
2013-06-13 01:43:00,56.0,52.0,29.78,NNW,327,0.0,1.0,86,0.01,,,0.26,0.000000,,2013-06-13 05:43:00,
2013-06-13 01:53:00,56.0,52.0,29.78,NNW,327,0.0,1.0,86,0.00,,,0.26,0.000000,,2013-06-13 05:53:00,
2013-06-13 02:02:00,55.0,51.0,29.77,NW,322,0.0,0.0,87,0.00,,,0.26,0.000000,,2013-06-13 06:02:00,
2013-06-13 02:11:00,55.0,51.0,29.77,NW,322,0.0,0.0,87,0.00,,,0.26,0.000000,,2013-06-13 06:11:00,
2013-06-13 02:22:00,55.0,51.0,29.77,NW,322,0.0,0.0,87,0.00,,,0.26,0.000000,,2013-06-13 06:22:00,
2013-06-13 02:33:00,55.0,52.0,29.77,NW,322,0.0,0.0,88,0.00,,,0.24,0.000000,,2013-06-13 06:33:00,
2013-06-13 02:44:00,55.0,52.0,29.77,NW,322,0.0,0.0,88,0.00,,,0.24,0.000000,,2013-06-13 06:44:00,
2013-06-13 02:52:00,55.0,52.0,29.77,NW,322,0.0,0.0,88,0.00,,,0.24,0.000000,,2013-06-13 06:52:00,
2013-06-13 03:02:00,54.0,51.0,29.77,NW,322,0.0,0.0,88,0.00,,,0.24,0.000000,,2013-06-13 07:02:00,
2013-06-13 03:12:00,54.0,51.0,29.77,NW,322,0.0,1.0,89,0.00,,,0.24,0.000000,,2013-06-13 07:12:00,
2013-06-13 03:22:00,54.0,51.0,29.77,NW,322,0.0,0.0,89,0.00,,,0.24,0.000000,,2013-06-13 07:22:00,
2013-06-13 03:33:00,54.0,51.0,29.77,NW,322,0.0,1.0,89,0.00,,,0.21,0.000000,,2013-06-13 07:33:00,
2013-06-13 03:42:00,54.0,51.0,29.77,NW,322,0.0,1.0,90,0.00,,,0.21,0.000000,,2013-06-13 07:42:00,
2013-06-13 03:52:00,54.0,51.0,29.76,NW,322,0.0,1.0,90,0.00,,,0.21,0.000000,,2013-06-13 07:52:00,
2013-06-13 04:01:00,54.0,51.0,29.76,NW,322,0.0,3.0,90,0.00,,,0.21,0.000000,,2013-06-13 08:01:00,
2013-06-13 04:11:00,54.0,51.0,29.76,NW,322,0.0,3.0,90,0.00,,,0.21,0.000000,,2013-06-13 08:11:00,
2013-06-13 04:22:00,53.0,50.0,29.77,NW,322,0.0,1.0,91,0.00,,,0.21,0.000000,,2013-06-13 08:22:00,
2013-06-13 04:32:00,53.0,50.0,29.77,NW,322,0.0,1.0,91,0.00,,,0.19,0.000000,,2013-06-13 08:32:00,
2013-06-13 04:43:00,53.0,50.0,29.77,NW,322,0.0,0.0,91,0.00,,,0.19,0.000000,,2013-06-13 08:43:00,
2013-06-13 04:52:00,53.0,50.0,29.77,NW,322,0.0,0.0,91,0.00,,,0.19,0.000000,,2013-06-13 08:52:00,
2013-06-13 05:02:00,53.0,50.0,29.77,NW,322,0.0,0.0,91,0.00,,,0.19,0.000000,,2013-06-13 09:02:00,
2013-06-13 05:12:00,52.0,50.0,29.77,NW,322,0.0,0.0,92,0.00,,,0.19,0.000000,,2013-06-13 09:12:00,
2013-06-13 05:22:00,52.0,50.0,29.78,NW,322,0.0,0.0,92,0.00,,,0.19,0.000000,,2013-06-13 09:22:00,
2013-06-13 05:32:00,52.0,50.0,29.78,NW,322,0.0,0.0,92,0.00,,,0.17,5.000000,,2013-06-13 09:32:00,
2013-06-13 05:42:00,52.0,50.0,29.78,NW,322,0.0,0.0,93,0.00,,,0.17,9.000000,,2013-06-13 09:42:00,
2013-06-13 05:52:00,52.0,50.0,29.78,NW,322,0.0,0.0,93,0.00,,,0.17,16.000000,,2013-06-13 09:52:00,
2013-06-13 06:01:00,52.0,50.0,29.78,NW,322,0.0,0.0,94,0.00,,,0.17,16.000000,,2013-06-13 10:01:00,
2013-06-13 06:12:00,52.0,50.0,29.78,NW,322,0.0,0.0,94,0.00,,,0.17,16.000000,,2013-06-13 10:12:00,
2013-06-13 06:22:00,52.0,50.0,29.77,NW,322,0.0,0.0,94,0.00,,,0.17,25.000000,,2013-06-13 10:22:00,
2013-06-13 06:33:00,52.0,50.0,29.77,NW,322,0.0,0.0,94,0.00,,,0.17,30.000000,,2013-06-13 10:33:00,
2013-06-13 06:43:00,52.0,50.0,29.78,NW,322,0.0,0.0,94,0.00,,,0.15,83.000000,,2013-06-13 10:43:00,
2013-06-13 06:53:00,53.0,52.0,29.78,NW,322,0.0,0.0,95,0.00,,,0.15,100.000000,,2013-06-13 10:53:00,
2013-06-13 07:02:00,53.0,52.0,29.79,NW,322,0.0,0.0,96,0.00,,,0.15,86.000000,,2013-06-13 11:02:00,
2013-06-13 07:12:00,54.0,53.0,29.79,NW,322,0.0,0.0,96,0.00,,,0.15,70.000000,,2013-06-13 11:12:00,
2013-06-13 07:24:00,54.0,53.0,29.79,NW,322,0.0,0.0,96,0.00,,,0.15,127.000000,,2013-06-13 11:24:00,
2013-06-13 07:32:00,55.0,54.0,29.78,NW,322,0.0,0.0,96,0.00,,,0.14,149.000000,,2013-06-13 11:32:00,
2013-06-13 07:42:00,55.0,54.0,29.78,NW,322,0.0,0.0,96,0.01,,,0.15,146.000000,,2013-06-13 11:42:00,
2013-06-13 07:52:00,55.0,54.0,29.78,NW,322,0.0,0.0,95,0.01,,,0.15,162.000000,,2013-06-13 11:52:00,
2013-06-13 08:02:00,56.0,55.0,29.78,NW,322,0.0,0.0,95,0.01,,,0.15,200.000000,,2013-06-13 12:02:00,
2013-06-13 08:12:00,57.0,56.0,29.78,NW,322,0.0,0.0,95,0.01,,,0.15,223.000000,,2013-06-13 12:12:00,
2013-06-13 08:22:00,58.0,57.0,29.78,NW,322,0.0,0.0,95,0.01,,,0.15,239.000000,,2013-06-13 12:22:00,
2013-06-13 08:35:00,59.0,57.0,29.78,NW,322,0.0,0.0,92,0.01,,,0.13,185.000000,,2013-06-13 12:35:00,
2013-06-13 08:43:00,60.0,57.0,29.78,NW,322,0.0,0.0,90,0.00,,,0.13,148.000000,,2013-06-13 12:43:00,
2013-06-13 08:52:00,61.0,57.0,29.77,NW,322,0.0,0.0,88,0.00,,,0.13,156.000000,,2013-06-13 12:52:00,
2013-06-13 09:02:00,61.0,57.0,29.77,NW,322,0.0,0.0,86,0.00,,,0.13,165.000000,,2013-06-13 13:02:00,
2013-06-13 09:11:00,62.0,57.0,29.77,NW,322,0.0,0.0,85,0.00,,,0.13,153.000000,,2013-06-13 13:11:00,
2013-06-13 09:22:00,62.0,57.0,29.77,NW,322,0.0,0.0,83,0.00,,,0.13,160.000000,,2013-06-13 13:22:00,
2013-06-13 09:33:00,62.0,57.0,29.77,NW,322,0.0,0.0,83,0.00,,,0.13,162.000000,,2013-06-13 13:33:00,
2013-06-13 09:43:00,63.0,57.0,29.77,NW,322,0.0,0.0,81,0.00,,,0.12,130.000000,,2013-06-13 13:43:00,
2013-06-13 09:53:00,63.0,57.0,29.77,NW,322,0.0,0.0,82,0.00,,,0.12,130.000000,,2013-06-13 13:53:00,
2013-06-13 10:02:00,63.0,57.0,29.77,NW,322,0.0,0.0,82,0.00,,,0.12,127.000000,,2013-06-13 14:02:00,
2013-06-13 10:11:00,63.0,58.0,29.76,NW,322,0.0,0.0,85,0.00,,,0.12,234.000000,,2013-06-13 14:11:00,
2013-06-13 10:22:00,63.0,58.0,29.76,NW,322,0.0,0.0,85,0.00,,,0.12,213.000000,,2013-06-13 14:22:00,
2013-06-13 10:33:00,64.0,59.0,29.76,NW,322,0.0,0.0,84,0.00,,,0.12,195.000000,,2013-06-13 14:33:00,
2013-06-13 10:43:00,64.0,59.0,29.76,NW,322,0.0,0.0,85,0.00,,,0.10,146.000000,,2013-06-13 14:43:00,
2013-06-13 10:53:00,64.0,60.0,29.76,NW,322,0.0,0.0,86,0.00,,,0.10,141.000000,,2013-06-13 14:53:00,
2013-06-13 11:02:00,63.0,59.0,29.76,NW,322,0.0,0.0,87,0.00,,,0.10,149.000000,,2013-06-13 15:02:00,
2013-06-13 11:12:00,63.0,59.0,29.76,NW,322,0.0,0.0,87,0.00,,,0.10,169.000000,,2013-06-13 15:12:00,
2013-06-13 11:22:00,63.0,59.0,29.77,NW,322,0.0,0.0,87,0.00,,,0.10,172.000000,,2013-06-13 15:22:00,
2013-06-13 11:33:00,63.0,59.0,29.77,NW,322,0.0,0.0,88,0.00,,,0.09,181.000000,,2013-06-13 15:33:00,
2013-06-13 11:43:00,63.0,59.0,29.77,NW,322,0.0,0.0,88,0.00,,,0.09,209.000000,,2013-06-13 15:43:00,
2013-06-13 11:53:00,63.0,60.0,29.76,NW,322,0.0,0.0,89,0.00,,,0.09,188.000000,,2013-06-13 15:53:00,
2013-06-13 12:02:00,63.0,59.0,29.76,NW,322,0.0,0.0,88,0.00,,,0.09,162.000000,,2013-06-13 16:02:00,
2013-06-13 12:12:00,62.0,58.0,29.76,NW,322,0.0,0.0,88,0.00,,,0.09,146.000000,,2013-06-13 16:12:00,
2013-06-13 12:22:00,62.0,59.0,29.77,NW,322,0.0,0.0,89,0.00,,,0.09,120.000000,,2013-06-13 16:22:00,
2013-06-13 12:33:00,62.0,59.0,29.77,NW,322,0.0,0.0,90,0.00,,,0.08,107.000000,,2013-06-13 16:33:00,
2013-06-13 12:43:00,61.0,58.0,29.77,NW,322,0.0,0.0,89,0.00,,,0.08,97.000000,,2013-06-13 16:43:00,
2013-06-13 12:53:00,61.0,58.0,29.77,NW,322,0.0,0.0,89,0.00,,,0.08,97.000000,,2013-06-13 16:53:00,
2013-06-13 13:02:00,60.0,57.0,29.77,NW,322,0.0,0.0,89,0.00,,,0.08,88.000000,,2013-06-13 17:02:00,
2013-06-13 13:12:00,60.0,57.0,29.78,NW,322,0.0,0.0,91,0.00,,,0.08,91.000000,,2013-06-13 17:12:00,
2013-06-13 13:24:00,59.0,57.0,29.75,NW,322,0.0,0.0,92,0.00,,,0.08,90.000000,,2013-06-13 17:24:00,
2013-06-13 13:33:00,59.0,57.0,29.74,NW,322,0.0,0.0,92,0.01,,,0.07,81.000000,,2013-06-13 17:33:00,
2013-06-13 13:43:00,59.0,57.0,29.74,NW,322,0.0,0.0,92,0.01,,,0.07,79.000000,,2013-06-13 17:43:00,
2013-06-13 13:53:00,59.0,57.0,29.72,NW,322,0.0,0.0,92,0.01,,,0.07,104.000000,,2013-06-13 17:53:00,
2013-06-13 14:02:00,59.0,57.0,29.72,NW,322,0.0,0.0,93,0.01,,,0.07,100.000000,,2013-06-13 18:02:00,
2013-06-13 14:11:00,59.0,57.0,29.72,NW,322,0.0,0.0,94,0.01,,,0.07,79.000000,,2013-06-13 18:11:00,
2013-06-13 14:22:00,59.0,57.0,29.71,NW,322,0.0,3.0,94,0.01,,,0.07,91.000000,,2013-06-13 18:22:00,
2013-06-13 14:33:00,58.0,57.0,29.71,NW,322,0.0,0.0,95,0.01,,,0.07,98.000000,,2013-06-13 18:33:00,
2013-06-13 14:43:00,58.0,57.0,29.71,NW,322,0.0,0.0,95,0.00,,,0.07,51.000000,,2013-06-13 18:43:00,
2013-06-13 14:52:00,58.0,57.0,29.73,NW,322,0.0,0.0,95,0.00,,,0.07,58.000000,,2013-06-13 18:52:00,
2013-06-13 15:02:00,58.0,57.0,29.74,NW,322,0.0,0.0,95,0.00,,,0.07,63.000000,,2013-06-13 19:02:00,
2013-06-13 15:11:00,57.0,56.0,29.74,NW,322,0.0,0.0,96,0.00,,,0.07,67.000000,,2013-06-13 19:11:00,
2013-06-13 15:22:00,57.0,56.0,29.75,WSW,238,0.0,0.0,95,0.00,,,0.07,62.000000,,2013-06-13 19:22:00,
2013-06-13 15:33:00,56.0,55.0,29.75,SSW,213,0.0,1.0,95,0.00,,,0.07,72.000000,,2013-06-13 19:33:00,
2013-06-13 15:43:00,56.0,55.0,29.72,SSW,212,0.0,1.0,95,0.00,,,0.06,56.000000,,2013-06-13 19:43:00,
2013-06-13 15:53:00,56.0,55.0,29.74,SSW,212,0.0,0.0,96,0.00,,,0.06,62.000000,,2013-06-13 19:53:00,
2013-06-13 16:02:00,55.0,54.0,29.73,NW,314,0.0,2.0,96,0.01,,,0.07,58.000000,,2013-06-13 20:02:00,
2013-06-13 16:11:00,55.0,54.0,29.73,SSW,207,0.0,3.0,96,0.01,,,0.07,49.000000,,2013-06-13 20:11:00,
2013-06-13 16:22:00,55.0,54.0,29.74,SW,217,0.0,1.0,96,0.01,,,0.07,44.000000,,2013-06-13 20:22:00,
2013-06-13 16:33:00,55.0,54.0,29.74,ESE,104,0.0,2.0,97,0.01,,,0.07,58.000000,,2013-06-13 20:33:00,
2013-06-13 16:44:00,55.0,54.0,29.72,ESE,107,0.0,2.0,97,0.01,,,0.06,51.000000,,2013-06-13 20:44:00,
2013-06-13 16:53:00,55.0,54.0,29.73,SE,135,0.0,2.0,97,0.01,,,0.06,77.000000,,2013-06-13 20:53:00,
2013-06-13 17:02:00,54.0,53.0,29.71,ESE,105,0.0,0.0,97,0.00,,,0.06,46.000000,,2013-06-13 21:02:00,
2013-06-13 17:11:00,54.0,53.0,29.71,ESE,105,0.0,0.0,98,0.00,,,0.06,35.000000,,2013-06-13 21:11:00,
2013-06-13 17:22:00,54.0,53.0,29.71,ESE,110,0.0,0.0,98,0.00,,,0.06,37.000000,,2013-06-13 21:22:00,
2013-06-13 17:34:00,54.0,53.0,29.69,ESE,110,0.0,1.0,98,0.00,,,0.05,25.000000,,2013-06-13 21:34:00,
2013-06-13 17:43:00,54.0,53.0,29.69,ESE,110,0.0,1.0,98,0.00,,,0.05,21.000000,,2013-06-13 21:43:00,
2013-06-13 17:52:00,54.0,54.0,29.69,ESE,110,2.0,2.0,99,0.00,,,0.05,18.000000,,2013-06-13 21:52:00,
2013-06-13 18:02:00,54.0,54.0,29.69,ESE,110,0.0,2.0,99,0.00,,,0.05,11.000000,,2013-06-13 22:02:00,
2013-06-13 18:11:00,54.0,54.0,29.69,ESE,110,0.0,1.0,99,0.00,,,0.05,19.000000,,2013-06-13 22:11:00,
2013-06-13 18:22:00,54.0,54.0,29.68,ESE,110,0.0,0.0,100,0.00,,,0.05,12.000000,,2013-06-13 22:22:00,
2013-06-13 18:33:00,54.0,54.0,29.69,ESE,112,0.0,1.0,100,0.01,,,0.06,9.000000,,2013-06-13 22:33:00,
2013-06-13 18:43:00,53.0,53.0,29.69,ESE,112,0.0,0.0,100,0.01,,,0.06,11.000000,,2013-06-13 22:43:00,
2013-06-13 18:52:00,53.0,53.0,29.69,ESE,112,0.0,0.0,100,0.01,,,0.06,9.000000,,2013-06-13 22:52:00,
2013-06-13 19:02:00,53.0,53.0,29.70,ESE,112,0.0,0.0,100,0.01,,,0.06,9.000000,,2013-06-13 23:02:00,
2013-06-13 19:11:00,53.0,53.0,29.70,ESE,112,0.0,0.0,100,0.01,,,0.06,9.000000,,2013-06-13 23:11:00,
2013-06-13 19:22:00,53.0,53.0,29.71,ESE,112,0.0,0.0,100,0.01,,,0.06,7.000000,,2013-06-13 23:22:00,
2013-06-13 19:32:00,53.0,53.0,29.71,ESE,112,0.0,0.0,100,0.01,,,0.06,7.000000,,2013-06-13 23:32:00,
2013-06-13 19:43:00,53.0,53.0,29.71,ESE,112,0.0,0.0,100,0.00,,,0.06,7.000000,,2013-06-13 23:43:00,
2013-06-13 19:52:00,53.0,53.0,29.71,ESE,112,0.0,0.0,100,0.00,,,0.06,5.000000,,2013-06-13 23:52:00,
2013-06-13 20:01:00,53.0,53.0,29.70,ESE,112,0.0,0.0,100,0.00,,,0.06,7.000000,,2013-06-14 00:01:00,
2013-06-13 20:12:00,53.0,53.0,29.70,ESE,112,0.0,0.0,100,0.00,,,0.06,5.000000,,2013-06-14 00:12:00,
2013-06-13 20:22:00,53.0,53.0,29.70,ESE,112,0.0,0.0,100,0.00,,,0.06,0.000000,,2013-06-14 00:22:00,
2013-06-13 20:34:00,53.0,53.0,29.70,ESE,112,0.0,0.0,100,0.00,,,0.06,0.000000,,2013-06-14 00:34:00,
2013-06-13 20:43:00,53.0,53.0,29.70,ESE,112,0.0,1.0,100,0.00,,,0.05,0.000000,,2013-06-14 00:43:00,
2013-06-13 20:53:00,52.0,52.0,29.69,ESE,112,0.0,0.0,100,0.00,,,0.05,0.000000,,2013-06-14 00:53:00,
2013-06-13 21:01:00,52.0,52.0,29.69,ESE,112,0.0,1.0,100,0.00,,,0.05,0.000000,,2013-06-14 01:01:00,
2013-06-13 21:11:00,52.0,52.0,29.69,ESE,112,0.0,0.0,100,0.00,,,0.05,0.000000,,2013-06-14 01:11:00,
2013-06-13 21:22:00,52.0,52.0,29.69,ESE,112,0.0,0.0,100,0.01,,,0.06,0.000000,,2013-06-14 01:22:00,
2013-06-13 21:33:00,52.0,52.0,29.70,ESE,112,0.0,0.0,100,0.01,,,0.06,0.000000,,2013-06-14 01:33:00,
2013-06-13 21:43:00,52.0,52.0,29.70,ESE,112,0.0,0.0,100,0.01,,,0.06,0.000000,,2013-06-14 01:43:00,
2013-06-13 21:52:00,52.0,52.0,29.70,ESE,112,0.0,1.0,100,0.01,,,0.06,0.000000,,2013-06-14 01:52:00,
2013-06-13 22:02:00,52.0,52.0,29.70,ESE,112,0.0,3.0,100,0.01,,,0.06,0.000000,,2013-06-14 02:02:00,
2013-06-13 22:11:00,52.0,52.0,29.70,ESE,112,0.0,1.0,100,0.01,,,0.06,0.000000,,2013-06-14 02:11:00,
2013-06-13 22:22:00,52.0,52.0,29.69,East,99,1.0,2.0,100,0.01,,,0.06,0.000000,,2013-06-14 02:22:00,
2013-06-13 22:32:00,51.0,51.0,29.69,ESE,102,1.0,2.0,100,0.00,,,0.06,0.000000,,2013-06-14 02:32:00,
2013-06-13 22:43:00,51.0,51.0,29.69,East,89,0.0,2.0,100,0.00,,,0.06,0.000000,,2013-06-14 02:43:00,
2013-06-13 22:52:00,51.0,51.0,29.68,East,89,0.0,2.0,100,0.00,,,0.06,0.000000,,2013-06-14 02:52:00,
2013-06-13 23:02:00,51.0,51.0,29.68,South,172,1.0,3.0,100,0.00,,,0.06,0.000000,,2013-06-14 03:02:00,
2013-06-13 23:12:00,51.0,51.0,29.67,SE,141,1.0,3.0,100,0.00,,,0.06,0.000000,,2013-06-14 03:12:00,
2013-06-13 23:22:00,51.0,51.0,29.66,ESE,102,2.0,3.0,100,0.00,,,0.06,0.000000,,2013-06-14 03:22:00,
2013-06-13 23:34:00,51.0,51.0,29.66,ESE,102,1.0,2.0,100,0.00,,,0.06,0.000000,,2013-06-14 03:34:00,
2013-06-13 23:43:00,51.0,51.0,29.66,ESE,120,0.0,2.0,100,0.00,,,0.06,0.000000,,2013-06-14 03:43:00,
2013-06-13 23:53:00,51.0,51.0,29.65,ESE,120,0.0,1.0,100,0.00,,,0.06,0.000000,,2013-06-14 03:53:00,